Miscellaneous Local Product
Issued by NWS Hastings, NE

Home | Current Version | Previous Version | Graphics & Text | Print | Product List | Glossary On
Versions: 1 2 3 4 5 6 7 8 9 10 11 12 13 14 15 16 17 18 19 20 21 22 23 24 25 26 27 28 29 30 31 32 33 34 35 36 37 38 39 40 41 42 43 44 45 46 47 48 49 50
000
AXUS43 KGID 170502
MISGRI

GID CWA HOURLY WEATHER ROUNDUP
NATIONAL WEATHER SERVICE HASTINGS NE
1100 PM CST THU NOV 16 2017

NOTE: "FAIR" INDICATES FEW OR NO CLOUDS BELOW 12,000 FEET WITH NO
SIGNIFICANT WEATHER AND/OR OBSTRUCTIONS TO VISIBILITY.

...SOUTH CENTRAL NEBRASKA...

CITY           SKY/WX    TMP DP  RH WIND       PRES   REMARKS
GRAND ISLAND   CLOUDY    44  34  67 S14       29.75F
KEARNEY        CLOUDY    50  40  68 S21G30    29.73F
HASTINGS       CLOUDY    47  36  65 S14G25    29.76F
ORD            CLOUDY    46  34  62 SE13      29.70F
YORK           CLOUDY    45  32  61 S20G25    29.78F
AURORA         CLOUDY    45  32  61 S13G21    29.77S
LEXINGTON      CLOUDY    47  37  67 SE8G16    29.71F
HOLDREGE       CLOUDY    47  40  74 S17G23    29.72F
HEBRON         PTCLDY    49  37  63 S12G18    29.82F

...NEBRASKA PANHANDLE...

CITY           SKY/WX    TMP DP  RH WIND       PRES   REMARKS
CHADRON        CLEAR     48  27  44 SW6       29.59S
ALLIANCE       CLEAR     38  29  70 SE5       29.65F WCI  34
SCOTTSBLUFF    CLEAR     43  27  53 NE6       29.66F
SIDNEY         CLOUDY    36  25  64 SW9       29.70F WCI  29

...WESTERN AND NORTH CENTRAL NEBRASKA...

CITY           SKY/WX    TMP DP  RH WIND       PRES   REMARKS
VALENTINE      CLOUDY    50  34  54 SW7       29.61R
AINSWORTH      CLEAR     49  36  61 SW16      29.62F
ONEILL         CLOUDY    48  35  61 S15G21    29.67S
BROKEN BOW     CLOUDY    48  36  63 S20G30    29.68F
NORTH PLATTE   CLOUDY    52  37  56 SE7       29.68F
MCCOOK         CLOUDY    50  39  66 S7G20     29.68F

...EASTERN NEBRASKA...

CITY           SKY/WX    TMP DP  RH WIND       PRES   REMARKS
NORFOLK        CLEAR     43  31  62 S13       29.76S
SO SIOUX CITY  MOCLDY    39  29  67 SE13      29.81F WCI  31
TEKAMAH        CLEAR     38  28  67 SE17      29.83F WCI  28
COLUMBUS       CLOUDY    46  31  55 S18G26    29.78
ALBION         PTCLDY    44  32  63 SE13G18   29.74F
OMAHA EPPLEY   CLOUDY    41  28  60 SE12      29.89F
OFFUTT AFB     CLOUDY    40  28  63 SE12      29.88F WCI  33
MILLARD        CLOUDY    42  31  63 SE12G18   29.87F
LINCOLN        CLOUDY    44  31  60 S16       29.84F
NEBRASKA CITY  CLOUDY    44  32  62 S20G26    29.89F
BEATRICE       CLOUDY    47  33  58 S14G21    29.85F
FALLS CITY     CLOUDY    43  30  60 SE9       29.92F

...NORTHERN KANSAS...

CITY           SKY/WX    TMP DP  RH WIND       PRES   REMARKS
GOODLAND       CLOUDY    47  38  71 S12       29.71F
HILL CITY      CLOUDY    51  44  77 S12       29.74F
NORTON         CLEAR     48  36  61 SE10      29.72F
PHILLIPSBURG   CLEAR     46  39  76 E9        29.76F
SMITH CENTER   CLEAR     46  39  76 SE15      29.78F
HAYS           CLOUDY    48  44  86 SE10      29.78F
RUSSELL        PTCLDY    51  50  96 S22       29.77F
CONCORDIA      CLOUDY    50  41  71 S16       29.82F
SALINA         MOCLDY    57  49  74 S12       29.85F
TOPEKA         MOCLDY    51  34  52 SE9       29.92F



USA.gov is the U.S. government's official web portal to all federal, state and local government web resources and services.